Weather History for Buffalo, SD

Change the Weather History Date:

Sunday, December 15, 2013

  Actual Average Record
Temperature  
Mean Temperature 40 °F 21 °F  
Max Temperature 44 °F 31 °F 52 °F (1997)
Min Temperature 35 °F 10 °F -22 °F (2008)
Degree Days  
Heating Degree Days 25 44  
Month to date heating degree days 812 643  
Since 1 July heating degree days 2602 2541  
Cooling Degree Days 0 0  
Month to date cooling degree days 0 0  
Year to date cooling degree days 587 513  
Moisture  
Dew Point 28 °F    
Average Humidity 66    
Maximum Humidity 75    
Minimum Humidity 57    
Precipitation  
Precipitation 0.00 in 0.01 in 0.05 in (2002)
Month to date precipitation 0.57 0.10  
Year to date precipitation 12.72 14.33  
Sea Level Pressure  
Sea Level Pressure 29.84 in    
Wind  
Wind Speed 14 mph (West)    
Max Wind Speed 23 mph    
Max Gust Speed 26 mph    
T = Trace of Precipitation, MM = Missing Value Source: NWS Daily Summary

Daily Weather History Graph

Daily Weather History Graph

Search for Another Location

Airport:

Trip Planner

Search our weather history database for the weather conditions in past years. The results will help you decide how hot, cold, wet, or windy it might be!

Date:

Astronomy

Dec. 15, 2013 Rise Set
Actual Time 7:28 AM MST 4:10 PM MST
Civil Twilight 6:53 AM MST 4:45 PM MST
Nautical Twilight 6:16 AM MST 5:22 PM MST
Astronomical Twilight 5:39 AM MST 5:59 PM MST
Moon 3:20 PM MST (12/15) 5:42 AM MST (12/15)
Length of Visible Light 9h 51m
Length of Day
8h 42m
Waxing Gibbous, 98% of the Moon is Illuminated
Dec 15
Waxing Gibbous
Dec 17
Full
Dec 25
Last Quarter
Jan 1
New
Jan 7
First Quarter

Hourly Weather History & Observations

Time (MST) Temp. Windchill Dew Point Humidity Pressure Visibility Wind Dir Wind Speed Gust Speed Precip Events Conditions
12:56 AM 36.0 °F 27.5 °F 28.9 °F 76% 29.93 in - West 12.7 mph - N/A   Unknown
1:56 AM 35.1 °F 26.4 °F 28.0 °F 76% 29.91 in - West 12.7 mph - N/A   Unknown
2:56 AM 36.0 °F 25.3 °F 28.0 °F 73% 29.90 in - West 19.6 mph - N/A   Unknown
3:56 AM 37.0 °F 27.4 °F 28.9 °F 73% 29.87 in - WSW 17.3 mph - N/A   Unknown
4:56 AM 37.0 °F 28.5 °F 28.9 °F 73% 29.85 in - West 13.8 mph - N/A   Unknown
5:56 AM 37.0 °F 28.5 °F 28.9 °F 73% 29.84 in - West 13.8 mph - N/A   Unknown
6:56 AM 37.0 °F 27.4 °F 28.0 °F 70% 29.83 in - West 17.3 mph - N/A   Unknown
7:56 AM 36.0 °F 26.0 °F 28.0 °F 73% 29.83 in - West 17.3 mph - N/A   Unknown
8:56 AM 39.0 °F 29.3 °F 28.0 °F 65% 29.84 in - West 19.6 mph - N/A   Unknown
9:56 AM 39.9 °F 31.4 °F 28.0 °F 63% 29.85 in - West 16.1 mph - N/A   Unknown
10:56 AM 41.0 °F 33.1 °F 28.0 °F 60% 29.83 in - WSW 15.0 mph - N/A   Unknown
11:56 AM 41.0 °F 31.9 °F 28.0 °F 60% 29.82 in - West 19.6 mph - N/A   Unknown
12:56 PM 42.1 °F 35.7 °F 28.0 °F 58% 29.81 in - SW 11.5 mph - N/A   Unknown
1:56 PM 43.0 °F 36.0 °F 28.0 °F 56% 29.81 in - West 13.8 mph - N/A   Unknown
2:56 PM 42.1 °F 35.2 °F 28.9 °F 60% 29.82 in - WSW 12.7 mph - N/A   Unknown
3:56 PM 39.9 °F 33.4 °F 28.0 °F 63% 29.82 in - West 10.4 mph - N/A   Unknown
4:56 PM 39.0 °F 32.8 °F 28.0 °F 65% 29.83 in - West 9.2 mph - N/A   Unknown
5:56 PM 39.9 °F 32.1 °F 28.0 °F 63% 29.83 in - West 13.8 mph - N/A   Unknown
6:56 PM 39.9 °F 35.8 °F 28.0 °F 63% 29.83 in - WSW 5.8 mph - N/A   Unknown
7:56 PM 39.9 °F 32.5 °F 27.0 °F 60% 29.83 in - West 12.7 mph - N/A   Unknown
8:56 PM 37.0 °F 28.5 °F 27.0 °F 67% 29.82 in - WNW 13.8 mph - N/A   Unknown
9:56 PM 36.0 °F 29.0 °F 26.1 °F 67% 29.82 in - WSW 9.2 mph - N/A   Unknown
10:56 PM 39.0 °F 29.3 °F 27.0 °F 62% 29.81 in - WNW 19.6 mph - N/A   Unknown
11:56 PM 37.9 °F 28.5 °F 28.0 °F 68% 29.82 in - West 17.3 mph - N/A   Unknown